Location: Saratoga Springs
(43.0831°N, 73.7850°W)
Time: 07:39:29
(UTC-04:00)

Vanguard 2 Rocket - Pass Details

Date: 25 April 2024
Orbit: 556 x 3304 km, 32.9° (Epoch: 22 May)

Event Time Altitude Azimuth Distance (km) Brightness Sun altitude
Rises 04:55:06 0° 277° (W) 7,284 11.0 -11.0°
Reaches altitude 10° 05:04:09 10° 256° (WSW) 6,052 10.4 -9.6°
Maximum altitude 05:11:22 14° 233° (SW) 5,389 10.2 -8.4°
Drops below altitude 10° 05:17:48 10° 209° (SSW) 5,241 10.3 -7.4°
Sets 05:24:29 0° 185° (S) 5,646 10.6 -6.3°
